Hourly Weather Barra

Today, 19 April, Monday

Time Temperature Precipitation Wind Pressure Humidity
00:00 +24°C° 0.3 mm 1 mps 724 mmHg 91%
01:00 +24°C° 0 mm 1 mps 724 mmHg 90%
02:00 +24°C° 0 mm 1 mps 723 mmHg 90%
03:00 +24°C° 0 mm 1 mps 723 mmHg 90%
04:00 +24°C° 0.1 mm 1 mps 723 mmHg 90%
05:00 +24°C° 0.1 mm 2 mps 724 mmHg 90%
06:00 +24°C° 0.1 mm 2 mps 724 mmHg 90%
07:00 +24°C° 0.1 mm 2 mps 724 mmHg 87%
08:00 +25°C° 0.1 mm 2 mps 725 mmHg 85%
09:00 +26°C° 0 mm 2 mps 726 mmHg 82%
10:00 +27°C° 0.5 mm 2 mps 725 mmHg 75%
11:00 +29°C° 0.5 mm 3 mps 725 mmHg 67%
12:00 +30°C° 0.5 mm 3 mps 725 mmHg 60%
13:00 +29°C° 0.7 mm 2 mps 724 mmHg 64%
14:00 +29°C° 0.7 mm 2 mps 724 mmHg 68%
15:00 +28°C° 0.7 mm 2 mps 723 mmHg 72%
16:00 +27°C° 0.9 mm 2 mps 723 mmHg 76%
17:00 +26°C° 0.9 mm 2 mps 723 mmHg 80%
18:00 +25°C° 0.9 mm 2 mps 724 mmHg 85%
19:00 +25°C° 0.1 mm 2 mps 724 mmHg 86%
20:00 +24°C° 0.1 mm 1 mps 724 mmHg 87%
21:00 +24°C° 0.1 mm 1 mps 724 mmHg 89%
22:00 +24°C° 0 mm 1 mps 724 mmHg 90%
23:00 +23°C° 0 mm 1 mps 724 mmHg 91%

Tomorrow, 20 April, Tuesday

Time Temperature Precipitation Wind Pressure Humidity
00:00 +21°C° 0 mm 0 mps 724 mmHg 92%
01:00 +23°C° 0.1 mm 1 mps 724 mmHg 93%
02:00 +23°C° 0.1 mm 1 mps 724 mmHg 93%
03:00 +23°C° 0.1 mm 1 mps 723 mmHg 94%
04:00 +23°C° 0 mm 1 mps 724 mmHg 93%
05:00 +23°C° 0 mm 1 mps 724 mmHg 93%
06:00 +23°C° 0 mm 1 mps 724 mmHg 93%
07:00 +24°C° 0 mm 1 mps 725 mmHg 87%
08:00 +25°C° 0 mm 1 mps 725 mmHg 80%
09:00 +27°C° 0 mm 1 mps 726 mmHg 74%
10:00 +28°C° 0 mm 1 mps 725 mmHg 69%
11:00 +29°C° 0 mm 1 mps 725 mmHg 64%
12:00 +30°C° 0 mm 1 mps 724 mmHg 59%
13:00 +31°C° 0 mm 2 mps 724 mmHg 53%
14:00 +32°C° 0 mm 2 mps 723 mmHg 48%
15:00 +35°C° 0 mm 2 mps 722 mmHg 42%
16:00 +31°C° 0.3 mm 2 mps 722 mmHg 55%
17:00 +28°C° 0.3 mm 2 mps 722 mmHg 67%
18:00 +26°C° 0.3 mm 1 mps 722 mmHg 79%
19:00 +25°C° 0.3 mm 1 mps 723 mmHg 81%
20:00 +25°C° 0.3 mm 1 mps 723 mmHg 83%
21:00 +25°C° 0.3 mm 1 mps 724 mmHg 85%
22:00 +25°C° 0.6 mm 1 mps 724 mmHg 87%
23:00 +24°C° 0.6 mm 1 mps 724 mmHg 89%

Day after tomorrow, 21 April, Wednesday

Time Temperature Precipitation Wind Pressure Humidity
00:00 +24°C° 0.6 mm 2 mps 724 mmHg 91%
01:00 +24°C° 0.8 mm 1 mps 724 mmHg 92%
02:00 +23°C° 0.8 mm 1 mps 723 mmHg 93%
03:00 +23°C° 0.8 mm 1 mps 723 mmHg 93%
04:00 +23°C° 0.5 mm 1 mps 723 mmHg 94%
05:00 +21°C° 0.5 mm 0 mps 724 mmHg 95%
06:00 +21°C° 0.5 mm 0 mps 724 mmHg 95%
07:00 +24°C° 1.1 mm 1 mps 725 mmHg 90%
08:00 +25°C° 1.1 mm 1 mps 725 mmHg 85%
09:00 +26°C° 1.1 mm 1 mps 726 mmHg 80%
10:00 +27°C° 1.4 mm 1 mps 725 mmHg 76%
11:00 +29°C° 1.4 mm 1 mps 725 mmHg 72%
12:00 +30°C° 1.4 mm 1 mps 724 mmHg 67%
13:00 +29°C° 1.3 mm 1 mps 724 mmHg 72%
14:00 +28°C° 1.3 mm 1 mps 723 mmHg 77%
15:00 +27°C° 1.3 mm 1 mps 722 mmHg 81%
16:00 +24°C° 0.8 mm 0 mps 723 mmHg 82%
17:00 +24°C° 0.8 mm 0 mps 723 mmHg 84%
18:00 +23°C° 0.8 mm 0 mps 724 mmHg 85%
19:00 +25°C° 0 mm 1 mps 724 mmHg 87%
20:00 +25°C° 0 mm 1 mps 724 mmHg 88%
21:00 +24°C° 0 mm 2 mps 725 mmHg 90%
22:00 +24°C° 0.3 mm 2 mps 725 mmHg 91%
23:00 +24°C° 0.3 mm 2 mps 725 mmHg 92%

22 April, Thursday

Time Temperature Precipitation Wind Pressure Humidity
00:00 +24°C° 0.3 mm 2 mps 725 mmHg 92%
01:00 +24°C° 0.2 mm 2 mps 724 mmHg 93%
02:00 +23°C° 0.2 mm 2 mps 724 mmHg 93%
03:00 +23°C° 0.2 mm 2 mps 723 mmHg 94%
04:00 +23°C° 0.3 mm 2 mps 724 mmHg 94%
05:00 +23°C° 0.3 mm 2 mps 724 mmHg 95%
06:00 +23°C° 0.3 mm 2 mps 725 mmHg 95%
07:00 +23°C° 1.1 mm 1 mps 725 mmHg 95%
08:00 +23°C° 1.1 mm 1 mps 726 mmHg 95%
09:00 +21°C° 1.1 mm 0 mps 726 mmHg 95%
10:00 +23°C° 0.8 mm 1 mps 726 mmHg 94%
11:00 +24°C° 0.8 mm 1 mps 726 mmHg 92%
12:00 +24°C° 0.8 mm 1 mps 725 mmHg 91%
13:00 +25°C° 0 mm 1 mps 725 mmHg 87%
14:00 +25°C° 0 mm 1 mps 724 mmHg 84%
15:00 +26°C° 0 mm 1 mps 723 mmHg 81%
16:00 +26°C° 0 mm 1 mps 723 mmHg 82%
17:00 +25°C° 0 mm 1 mps 724 mmHg 83%
18:00 +25°C° 0 mm 1 mps 724 mmHg 84%
19:00 +25°C° 0 mm 1 mps 724 mmHg 85%
20:00 +25°C° 0 mm 1 mps 725 mmHg 85%
21:00 +24°C° 0 mm 1 mps 725 mmHg 86%
22:00 +24°C° 0.1 mm 1 mps 725 mmHg 87%
23:00 +24°C° 0.1 mm 1 mps 725 mmHg 88%

23 April, Friday

Time Temperature Precipitation Wind Pressure Humidity
00:00 +24°C° 0.1 mm 1 mps 725 mmHg 89%
01:00 +24°C° 0.2 mm 1 mps 725 mmHg 89%
02:00 +24°C° 0.2 mm 1 mps 724 mmHg 90%
03:00 +23°C° 0.2 mm 1 mps 724 mmHg 91%
04:00 +23°C° 0.2 mm 2 mps 724 mmHg 92%
05:00 +23°C° 0.2 mm 2 mps 724 mmHg 93%
06:00 +23°C° 0.2 mm 2 mps 725 mmHg 94%
07:00 +25°C° 0.1 mm 2 mps 725 mmHg 85%
08:00 +27°C° 0.1 mm 2 mps 726 mmHg 77%
09:00 +28°C° 0.1 mm 2 mps 726 mmHg 68%
10:00 +30°C° 0 mm 2 mps 726 mmHg 62%
11:00 +31°C° 0 mm 2 mps 725 mmHg 56%
12:00 +33°C° 0 mm 3 mps 725 mmHg 50%
13:00 +32°C° 0 mm 2 mps 724 mmHg 49%
14:00 +32°C° 0 mm 2 mps 723 mmHg 49%
15:00 +32°C° 0 mm 2 mps 723 mmHg 48%
16:00 +31°C° 0 mm 1 mps 723 mmHg 54%
17:00 +29°C° 0 mm 1 mps 723 mmHg 59%
18:00 +28°C° 0 mm 1 mps 723 mmHg 65%
19:00 +27°C° 0 mm 1 mps 723 mmHg 68%
20:00 +27°C° 0 mm 1 mps 724 mmHg 70%
21:00 +26°C° 0 mm 1 mps 724 mmHg 73%
22:00 +26°C° 0 mm 1 mps 724 mmHg 74%
23:00 +25°C° 0 mm 1 mps 724 mmHg 75%

24 April, Saturday

Time Temperature Precipitation Wind Pressure Humidity
00:00 +23°C° 0 mm 0 mps 724 mmHg 77%
01:00 +24°C° 0.6 mm 1 mps 724 mmHg 81%
02:00 +24°C° 0.6 mm 2 mps 723 mmHg 86%
03:00 +23°C° 0.6 mm 2 mps 723 mmHg 91%
04:00 +23°C° 0.1 mm 2 mps 723 mmHg 91%
05:00 +23°C° 0.1 mm 2 mps 724 mmHg 91%
06:00 +23°C° 0.1 mm 2 mps 724 mmHg 92%
07:00 +25°C° 0 mm 3 mps 724 mmHg 82%
08:00 +27°C° 0 mm 3 mps 725 mmHg 72%
09:00 +30°C° 0 mm 3 mps 725 mmHg 62%
10:00 +31°C° 0 mm 3 mps 725 mmHg 56%
11:00 +33°C° 0 mm 3 mps 725 mmHg 51%
12:00 +35°C° 0 mm 3 mps 724 mmHg 45%
13:00 +35°C° 0 mm 3 mps 723 mmHg 44%
14:00 +35°C° 0 mm 2 mps 723 mmHg 43%
15:00 +35°C° 0 mm 2 mps 722 mmHg 41%
16:00 +34°C° 0 mm 2 mps 722 mmHg 46%
17:00 +31°C° 0 mm 2 mps 722 mmHg 51%
18:00 +30°C° 0 mm 3 mps 722 mmHg 56%
19:00 +29°C° 0 mm 3 mps 722 mmHg 59%
20:00 +29°C° 0 mm 3 mps 723 mmHg 62%
21:00 +28°C° 0 mm 3 mps 723 mmHg 65%
22:00 +28°C° 0.1 mm 3 mps 724 mmHg 67%
23:00 +28°C° 0.1 mm 3 mps 724 mmHg 69%
Show more